Regional Weather Roundup
Issued by NWS

Home | Current Version | Previous Version | Graphics & Text | Print | Product List | Glossary On
Versions: 1 2 3 4 5 6 7 8 9 10 11 12 13 14 15 16 17 18 19 20 21 22 23 24 25 26 27 28 29 30 31 32 33 34 35 36 37 38 39 40 41 42 43 44 45 46 47 48 49 50
000
ASUS43 KOAX 311502
RWRNE

WEATHER ROUNDUP FOR NEBRASKA
NATIONAL WEATHER SERVICE OMAHA NE
1000 AM CDT WED AUG 31 2016

NOTES: SATELLITE DATA IS BEING USED TO AUGMENT CLOUD COVER ABOVE
       12000 FEET.
       "FAIR" INDICATES FEW OR NO CLOUDS BELOW 12,000 FEET WITH NO
       SIGNIFICANT WEATHER AND/OR OBSTRUCTIONS TO VISIBILITY.

  * THESE STATIONS DO NOT REPORT WEATHER SUCH AS RAIN...SNOW OR FOG.

NEZ001>004-019>022-054>056-311600-
NEBRASKA PANHANDLE

CITY           SKY/WX    TMP DP  RH WIND       PRES   REMARKS
SCOTTSBLUFF    CLOUDY    64  60  87 SE5       30.27S
ALLIANCE       CLOUDY    65  62  90 S7        30.27R
CHADRON        SUNNY     68  59  73 S14       30.23S
KIMBALL        CLOUDY    63  63 100 E8        30.31R
SIDNEY         CLOUDY    64  61  90 SE7       30.30R
$$

NEZ057>060-069>072-079>082-311600-
SOUTHWEST NEBRASKA

CITY           SKY/WX    TMP DP  RH WIND       PRES   REMARKS
NORTH PLATTE   CLOUDY    67  65  93 E5        30.25R FOG
IMPERIAL       CLOUDY    66  64  93 E7        30.25R
LEXINGTON      CLOUDY    67  65  94 E6        30.24S FOG
MCCOOK         CLOUDY    70  66  87 E7        30.23S
OGALLALA       CLOUDY    68  65  92 SE3       30.25R
$$

NEZ005>010-023>029-035>040-094-311600-
NORTH CENTRAL NEBRASKA

CITY           SKY/WX    TMP DP  RH WIND       PRES   REMARKS
VALENTINE      SUNNY     68  62  81 CALM      30.25R
AINSWORTH      SUNNY     69  68  97 E3        30.26R
BROKEN BOW     CLOUDY    66  66 100 E5        30.24S FOG
O`NEILL        CLOUDY    70  68  95 NE5       30.25R FOG
ORD            CLOUDY    67  65  93 VRB3      30.23R FOG
THEDFORD       FOG       63  63  99 SE3       30.27R VSB 1/4
$$

NEZ041-046>049-061>064-073>077-083>087-311600-
SOUTH CENTRAL NEBRASKA

CITY           SKY/WX    TMP DP  RH WIND       PRES   REMARKS
GRAND ISLAND   CLOUDY    68  68 100 E8        30.23R FOG
AURORA         CLOUDY    69  69 100 NE8       30.22R FOG
HASTINGS       CLOUDY    69  67  93 NE5       30.23R FOG
HEBRON         CLOUDY    72  69  90 NE8       30.18R
HOLDREGE       LGT RAIN  67  66  96 E7        30.23S
KEARNEY *      CLOUDY    68  66  94 E6        30.22S
YORK           CLOUDY    72  68  88 E8        30.22R
$$

NEZ011>018-030>034-042>045-311600-
NORTHEAST NEBRASKA

CITY           SKY/WX    TMP DP  RH WIND       PRES   REMARKS
NORFOLK        SUNNY     71  62  73 E8        30.23R
ALBION         CLOUDY    69  67  94 E6        30.24R
BLAIR          MOSUNNY   70  63  78 NE7       30.20S
FREMONT        MOSUNNY   71  61  72 NE9       30.21S
TEKAMAH        SUNNY     71  63  75 N5        30.20S
WAYNE          SUNNY     68  64  85 CALM      30.23S
$$

NEZ050>053-065>068-078-088>093-311600-
SOUTHEAST NEBRASKA

CITY           SKY/WX    TMP DP  RH WIND       PRES   REMARKS
LINCOLN        CLOUDY    75  65  70 NE10      30.20R
OMAHA EPPLEY   PTSUNNY   73  62  68 N5        30.19S
BEATRICE       MOSUNNY   71  68  89 NE5       30.18R
FALLS CITY     CLOUDY    73  69  87 NE6       30.16R
NEBRASKA CITY  CLOUDY    69  65  86 NE8       30.18R
PLATTSMOUTH    PTSUNNY   71  63  77 NE6       30.19R
$$

NEZ044-045-051>053-067-311600-
OMAHA AREA

CITY           SKY/WX    TMP DP  RH WIND       PRES   REMARKS
OMAHA EPPLEY   PTSUNNY   73  62  68 N5        30.19S
BLAIR          MOSUNNY   70  63  78 NE7       30.20S
FREMONT        MOSUNNY   71  61  72 NE9       30.21S
MILLARD        MOSUNNY  N/A N/A N/A N3        30.19S
OFFUTT AFB     MOSUNNY   72  63  72 NE7       30.18S
PLATTSMOUTH    PTSUNNY   71  63  77 NE6       30.19R
WAHOO          FAIR      71  63  76 NE6       30.20S
$$



USA.gov is the U.S. government's official web portal to all federal, state and local government web resources and services.